Вернуться в каталог

SAUDICOMSAT 6

АктивенСвязьSSO
NORAD 31121·PAYLOAD·🇸🇦 Saudi Arabia

Запущен Apr 17, 2007 с Baikonur Cosmodrome

Loading…

Ближайшие Пролёты (ближайшие 24 часа)

TLE

СвежийSource: Space-Track

Эпоха: Sep 14, 2026, 03:54 UTC

1 31121U 07012E   26257.16297344  .00000456  00000-0  96492-4 0  9995
2 31121  98.4212 226.3847 0072706  50.4652 310.2945 14.62630323 33192

Отслеживайте SAUDICOMSAT 6 в реальном времени с AllMySat

Download on the App Store